EW6800 Weather Reports


time (UTC)temp
C
wind
direction
speed
KPH
gust
KPH
rain 1hr
cm
rain 24hr
cm
rain mn
cm
humidity
%
barometer
mb
20260508211550 15 296 8.0 16.1 0.00 0.03 0.03 79 1018.5
20260508211044 15 313 11.3 16.1 0.00 0.03 0.03 80 1018.5
20260508210544 15 319 8.0 14.5 0.00 0.03 0.03 80 1018.6
20260508210054 16 306 8.0 14.5 0.00 0.03 0.03 80 1018.6
20260508205543 16 303 8.0 14.5 0.00 0.03 0.03 81 1018.5
20260508205044 15 295 6.4 12.9 0.00 0.03 0.03 81 1018.7
20260508204549 15 299 6.4 12.9 0.00 0.03 0.03 81 1018.7
20260508204043 15 331 4.8 12.9 0.00 0.03 0.03 82 1018.8
20260508203544 15 300 6.4 12.9 0.00 0.03 0.03 83 1018.7
20260508203106 15 313 6.4 12.9 0.00 0.03 0.03 83 1018.7
20260508202544 15 300 6.4 12.9 0.00 0.03 0.03 84 1018.7
20260508202043 14 312 6.4 11.3 0.00 0.03 0.03 85 1018.8
20260508201549 14 331 4.8 14.5 0.00 0.03 0.03 85 1018.7
20260508201043 13 304 6.4 14.5 0.00 0.03 0.03 85 1018.7
20260508200543 13 306 8.0 14.5 0.00 0.03 0.03 85 1018.8
20260508200049 13 300 8.0 16.1 0.00 0.03 0.03 85 1018.8
20260508195543 13 300 9.7 16.1 0.00 0.03 0.03 86 1018.8
20260508195044 13 296 9.7 16.1 0.00 0.03 0.03 85 1018.9
20260508194554 13 296 9.7 16.1 0.00 0.03 0.03 85 1018.8
20260508194043 13 308 8.0 14.5 0.00 0.03 0.03 86 1018.8
20260508193543 13 307 8.0 14.5 0.00 0.03 0.03 87 1018.9
20260508193110 13 299 8.0 14.5 0.00 0.03 0.03 87 1018.9
20260508192544 13 305 6.4 11.3 0.00 0.03 0.03 88 1018.8
20260508192044 12 301 4.8 12.9 0.00 0.03 0.03 89 1018.9
20260508191549 12 306 6.4 14.5 0.00 0.03 0.03 89 1018.8
20260508191043 12 306 6.4 14.5 0.00 0.03 0.03 89 1018.9
20260508190545 12 298 6.4 14.5 0.00 0.03 0.03 90 1019.1
20260508190047 12 310 8.0 16.1 0.00 0.03 0.03 90 1019.0
20260508185544 12 298 8.0 16.1 0.00 0.03 0.03 91 1019.1
20260508185044 12 300 9.7 16.1 0.00 0.03 0.03 92 1019.2
20260508184546 12 325 9.7 16.1 0.00 0.03 0.03 93 1019.2
20260508184045 12 308 11.3 16.1 0.00 0.03 0.03 94 1019.1
20260508183544 11 318 9.7 16.1 0.00 0.03 0.03 95 1019.2
20260508183059 11 313 8.0 14.5 0.00 0.03 0.03 95 1019.2
20260508182544 11 309 8.0 16.1 0.00 0.03 0.03 96 1019.1
20260508182044 11 321 8.0 16.1 0.00 0.03 0.03 96 1019.2
20260508181553 11 311 9.7 16.1 0.00 0.03 0.03 96 1019.2
20260508181044 11 305 9.7 14.5 0.00 0.03 0.03 96 1019.3
20260508180545 11 299 8.0 14.5 0.00 0.03 0.03 97 1019.2
20260508180058 10 308 8.0 12.9 0.00 0.03 0.03 96 1019.3
20260508175544 10 310 6.4 14.5 0.00 0.03 0.03 97 1019.3
20260508175045 10 302 6.4 14.5 0.00 0.03 0.03 97 1019.3
20260508174602 10 308 8.0 14.5 0.00 0.03 0.03 96 1019.2
20260508174044 10 300 6.4 12.9 0.00 0.03 0.03 96 1019.2
20260508173546 10 308 6.4 14.5 0.00 0.03 0.03 97 1019.2
20260508173048 10 304 6.4 14.5 0.00 0.03 0.03 97 1019.2
20260508172544 10 310 6.4 14.5 0.00 0.03 0.03 96 1019.3
20260508172044 10 311 6.4 14.5 0.00 0.03 0.03 96 1019.2
20260508171547 10 309 6.4 12.9 0.00 0.03 0.03 96 1019.3
20260508171051 10 322 4.8 11.3 0.00 0.03 0.03 97 1019.3
20260508170544 10 306 4.8 11.3 0.00 0.03 0.03 97 1019.3
20260508170048 10 313 4.8 8.0 0.00 0.03 0.03 96 1019.2
20260508165546 9 304 1.6 8.0 0.00 0.03 0.03 96 1019.1
20260508165044 9 304 3.2 8.0 0.00 0.03 0.03 97 1018.9
20260508164603 9 302 3.2 8.0 0.00 0.03 0.03 96 1019.0
20260508164044 9 316 3.2 8.0 0.00 0.03 0.03 96 1019.1
20260508163547 8 315 3.2 6.4 0.00 0.03 0.03 96 1019.0
20260508163053 8 329 3.2 6.4 0.00 0.03 0.03 96 1019.0
20260508162544 8 331 3.2 6.4 0.00 0.03 0.03 96 1018.8
20260508162045 8 333 3.2 8.0 0.00 0.03 0.03 96 1018.9
20260508161553 8 313 3.2 9.7 0.00 0.03 0.03 96 1018.9
20260508161044 8 321 4.8 11.3 0.00 0.03 0.03 96 1018.9
20260508160547 8 309 4.8 11.3 0.00 0.03 0.03 96 1018.9
20260508160051 7 313 6.4 11.3 0.00 0.03 0.03 96 1018.9
20260508155549 7 311 4.8 11.3 0.00 0.03 0.03 96 1018.7
20260508155045 7 311 6.4 11.3 0.00 0.03 0.03 96 1018.6
20260508154553 7 317 4.8 8.0 0.00 0.03 0.03 96 1018.7
20260508154044 7 314 4.8 14.5 0.00 0.03 0.03 96 1018.7
20260508153545 7 294 6.4 14.5 0.00 0.03 0.03 96 1018.7
20260508153050 7 304 8.0 14.5 0.00 0.03 0.03 96 1018.7
20260508152545 7 311 6.4 11.3 0.00 0.03 0.03 96 1018.6
20260508152044 7 312 6.4 12.9 0.00 0.03 0.03 96 1018.6
20260508151554 7 312 6.4 16.1 0.00 0.03 0.03 96 1018.6
20260508151043 7 313 9.7 16.1 0.03 0.03 0.03 96 1018.6
20260508150544 7 306 9.7 16.1 0.03 0.03 0.03 96 1018.6
20260508150056 6 321 9.7 14.5 0.03 0.03 0.03 96 1018.5
20260508145543 7 309 9.7 17.7 0.03 0.03 0.03 96 1018.6
20260508145045 6 306 9.7 20.9 0.03 0.03 0.03 96 1018.6
20260508144555 6 321 14.5 20.9 0.03 0.03 0.03 96 1018.7
20260508144043 6 307 16.1 20.9 0.03 0.03 0.03 96 1018.5
20260508143542 6 315 14.5 20.9 0.03 0.03 0.03 96 1018.7
20260508143107 6 301 12.9 20.9 0.03 0.03 0.03 96 1018.7
20260508142544 6 309 14.5 20.9 0.03 0.03 0.03 96 1018.6
20260508142044 6 302 14.5 22.5 0.03 0.03 0.03 96 1018.4
20260508141555 6 299 16.1 22.5 0.03 0.03 0.03 96 1018.3
20260508141043 6 298 14.5 20.9 0.00 0.00 0.00 96 1018.2
20260508140543 6 298 12.9 19.3 0.00 0.00 0.00 96 1018.2
20260508140103 6 316 12.9 19.3 0.00 0.00 0.00 96 1018.1
20260508135544 6 300 11.3 16.1 0.00 0.00 0.00 96 1018.2
20260508135043 6 299 8.0 17.7 0.00 0.00 0.00 96 1018.1
20260508134555 6 300 11.3 22.5 0.00 0.00 0.00 96 1018.0
20260508134044 6 296 14.5 22.5 0.00 0.00 0.00 96 1018.0
20260508133543 6 315 12.9 22.5 0.00 0.00 0.00 96 1018.0
20260508133051 6 312 14.5 20.9 0.00 0.00 0.00 96 1017.9
20260508132546 6 311 14.5 22.5 0.00 0.00 0.00 96 1017.8
20260508132043 6 304 12.9 22.5 0.00 0.00 0.00 96 1017.7
20260508131552 6 311 14.5 20.9 0.00 0.00 0.00 96 1017.7
20260508131044 6 299 16.1 20.9 0.00 0.00 0.00 96 1017.7
20260508130544 6 298 11.3 17.7 0.00 0.00 0.00 96 1017.6
20260508130050 6 296 8.0 14.5 0.00 0.00 0.00 96 1017.6
20260508125544 6 296 9.7 14.5 0.00 0.00 0.00 96 1017.6
20260508125043 6 299 8.0 12.9 0.00 0.00 0.00 96 1017.6
20260508124552 6 299 4.8 11.3 0.00 0.00 0.00 96 1017.6
20260508124046 6 302 6.4 11.3 0.00 0.00 0.00 96 1017.6
20260508123543 6 299 4.8 14.5 0.00 0.00 0.00 96 1017.6
20260508123051 6 302 4.8 17.7 0.00 0.00 0.00 96 1017.7
20260508122545 6 301 8.0 17.7 0.00 0.00 0.00 96 1017.7
20260508122043 6 301 11.3 17.7 0.00 0.00 0.00 96 1017.7
20260508121548 6 295 12.9 19.3 0.00 0.00 0.00 96 1017.7
20260508121042 6 311 12.9 19.3 0.00 0.00 0.00 96 1017.8
20260508120544 6 304 11.3 17.7 0.00 0.00 0.00 96 1017.8
20260508120052 6 287 11.3 17.7 0.00 0.00 0.00 96 1017.9
20260508115545 6 296 8.0 19.3 0.00 0.00 0.00 96 1017.8
20260508115043 6 319 9.7 19.3 0.00 0.00 0.00 96 1017.7
20260508114604 6 305 11.3 19.3 0.00 0.00 0.00 96 1017.7
20260508114043 6 292 11.3 19.3 0.00 0.00 0.00 96 1017.7
20260508113544 6 303 14.5 19.3 0.00 0.00 0.00 96 1017.5
20260508113107 6 303 11.3 16.1 0.00 0.00 0.00 96 1017.5
20260508112546 6 300 9.7 16.1 0.00 0.00 0.00 96 1017.5
20260508112044 6 306 8.0 14.5 0.00 0.00 0.00 96 1017.5
20260508111600 6 300 9.7 14.5 0.00 0.00 0.00 96 1017.6
20260508111043 6 315 9.7 19.3 0.00 0.00 0.00 96 1017.7
20260508110545 6 292 9.7 19.3 0.00 0.00 0.00 96 1017.8
20260508110051 6 302 11.3 17.7 0.00 0.00 0.00 96 1017.8
20260508105546 6 301 9.7 17.7 0.00 0.00 0.00 96 1017.8
20260508105042 6 307 9.7 17.7 0.00 0.00 0.00 96 1017.9
20260508104553 6 296 9.7 17.7 0.00 0.00 0.00 95 1017.8
20260508104044 6 298 8.0 14.5 0.00 0.00 0.00 95 1017.8
20260508103549 6 315 9.7 16.1 0.00 0.00 0.00 95 1017.8
20260508103050 6 294 8.0 17.7 0.00 0.00 0.00 95 1017.7
20260508102543 6 295 11.3 17.7 0.00 0.00 0.00 95 1017.8
20260508102044 6 322 11.3 17.7 0.00 0.00 0.00 95 1017.8
20260508101553 6 300 11.3 16.1 0.00 0.00 0.00 95 1017.8
20260508101045 6 291 9.7 16.1 0.00 0.00 0.00 95 1017.7
20260508100547 6 315 8.0 14.5 0.00 0.00 0.00 95 1017.7
20260508100217 6 300 9.7 14.5 0.00 0.00 0.00 95 1017.7
20260508095544 6 298 8.0 14.5 0.00 0.00 0.00 95 1017.7
20260508095042 6 301 8.0 14.5 0.00 0.00 0.00 95 1017.7
20260508094553 6 297 3.2 6.4 0.00 0.00 0.00 95 1017.7
20260508094047 6 297 4.8 8.0 0.00 0.00 0.00 95 1017.7
20260508093543 6 296 4.8 8.0 0.00 0.00 0.00 95 1017.6
20260508093051 6 300 4.8 8.0 0.00 0.00 0.00 95 1017.6
20260508092543 6 304 4.8 8.0 0.00 0.00 0.00 95 1017.6
20260508092042 6 306 4.8 6.4 0.00 0.00 0.00 95 1017.6
20260508091604 6 306 4.8 6.4 0.00 0.00 0.00 95 1017.7
20260508091043 6 306 3.2 8.0 0.00 0.00 0.00 95 1017.7
20260508090543 6 306 3.2 8.0 0.00 0.00 0.00 95 1017.6
20260508090047 6 306 4.8 8.0 0.00 0.00 0.00 95 1017.7
20260508085543 7 300 4.8 12.9 0.00 0.00 0.00 95 1017.7
20260508085042 7 315 4.8 12.9 0.00 0.00 0.00 95 1017.7
20260508084548 7 304 6.4 12.9 0.00 0.00 0.00 95 1017.8
20260508084044 7 303 4.8 11.3 0.00 0.00 0.00 95 1017.8
20260508083543 7 306 4.8 14.5 0.00 0.00 0.00 95 1017.8
20260508083106 7 300 6.4 14.5 0.00 0.00 0.00 95 1017.8
20260508082543 7 298 8.0 12.9 0.00 0.00 0.00 95 1017.8
20260508082047 7 305 6.4 14.5 0.00 0.00 0.00 95 1017.8
20260508081556 7 299 4.8 14.5 0.00 0.00 0.00 95 1018.0
20260508081046 7 312 8.0 17.7 0.00 0.00 0.00 95 1018.0
20260508080543 7 318 8.0 17.7 0.00 0.00 0.00 95 1018.0
20260508080048 7 306 9.7 17.7 0.00 0.00 0.00 95 1017.9
20260508075543 7 298 9.7 16.1 0.00 0.00 0.00 95 1018.0
20260508075042 7 300 8.0 12.9 0.00 0.00 0.00 95 1018.0
20260508074548 7 298 6.4 12.9 0.00 0.00 0.00 95 1017.9
20260508074042 7 304 6.4 16.1 0.00 0.00 0.00 95 1017.9
20260508073544 7 304 6.4 17.7 0.00 0.00 0.00 95 1018.0
20260508073057 7 316 9.7 17.7 0.00 0.00 0.00 95 1018.0
20260508072544 7 298 9.7 17.7 0.00 0.00 0.00 95 1018.0
20260508072043 7 302 12.9 16.1 0.00 0.00 0.00 95 1018.0
20260508071549 7 312 11.3 16.1 0.00 0.00 0.00 95 1018.0
20260508071043 7 303 9.7 17.7 0.00 0.00 0.00 95 1018.0
20260508070543 7 323 11.3 17.7 0.00 0.00 0.00 95 1018.1
20260508070053 7 311 11.3 19.3 0.00 0.00 0.00 95 1018.0
20260508065543 7 325 12.9 19.3 0.00 0.00 0.00 95 1017.9
20260508065043 7 303 14.5 19.3 0.00 0.00 0.00 95 1018.0
20260508064555 7 309 12.9 19.3 0.00 0.00 0.00 95 1018.1
20260508064043 7 300 14.5 20.9 0.00 0.00 0.00 95 1018.1
20260508063543 8 312 12.9 20.9 0.00 0.00 0.00 95 1018.0
20260508063059 8 317 11.3 19.3 0.00 0.00 0.00 95 1018.0
20260508062542 8 308 11.3 16.1 0.00 0.00 0.00 94 1018.0
20260508062043 8 319 12.9 16.1 0.00 0.00 0.00 94 1018.1
20260508061551 8 310 9.7 14.5 0.00 0.00 0.00 94 1018.0
20260508061043 8 319 6.4 14.5 0.00 0.00 0.00 94 1018.0
20260508060544 8 306 9.7 16.1 0.00 0.00 0.00 94 1018.1
20260508060048 8 311 11.3 16.1 0.00 0.00 0.00 94 1018.1
20260508055545 8 307 8.0 12.9 0.00 0.00 0.00 94 1018.0
20260508055043 8 309 4.8 9.7 0.00 0.00 0.00 94 1018.0
20260508054553 8 324 6.4 9.7 0.00 0.00 0.00 94 1017.9
20260508054044 8 315 4.8 8.0 0.00 0.00 0.00 93 1017.9
20260508053543 8 315 4.8 9.7 0.00 0.00 0.00 94 1018.1
20260508053101 8 310 6.4 14.5 0.00 0.00 0.00 94 1017.9
20260508052543 8 320 8.0 14.5 0.00 0.00 0.00 94 1018.0
20260508052042 8 317 9.7 14.5 0.00 0.00 0.00 94 1018.0
20260508051549 8 306 8.0 12.9 0.00 0.00 0.00 94 1018.0
20260508051045 8 308 4.8 11.3 0.00 0.00 0.00 94 1017.9
20260508050543 8 315 4.8 11.3 0.00 0.00 0.00 94 1017.9
20260508050053 8 311 4.8 11.3 0.00 0.00 0.00 94 1017.8
20260508045542 8 312 4.8 11.3 0.00 0.00 0.00 94 1018.0
20260508045044 8 304 4.8 8.0 0.00 0.00 0.00 94 1017.9
20260508044549 8 307 4.8 8.0 0.00 0.00 0.00 93 1017.9
20260508044045 8 311 4.8 8.0 0.00 0.00 0.00 93 1017.9
20260508043543 8 307 4.8 8.0 0.00 0.00 0.00 93 1017.8
20260508043053 9 300 4.8 12.9 0.00 0.00 0.00 92 1017.9
20260508042542 9 304 4.8 12.9 0.00 0.00 0.00 92 1017.8
20260508042043 9 299 4.8 11.3 0.00 0.00 0.00 91 1017.9
20260508041548 9 311 6.4 11.3 0.00 0.00 0.00 90 1017.7
20260508041046 10 319 6.4 11.3 0.00 0.00 0.00 89 1017.6
20260508040543 10 304 4.8 8.0 0.00 0.00 0.00 86 1017.6
20260508040052 11 313 4.8 8.0 0.00 0.00 0.00 82 1017.6
20260508035543 12 318 6.4 12.9 0.00 0.00 0.00 79 1017.6
20260508035043 13 315 6.4 12.9 0.00 0.00 0.00 75 1017.6
20260508034552 15 312 8.0 12.9 0.00 0.00 0.00 69 1017.5
20260508034043 15 317 4.8 12.9 0.00 0.00 0.00 66 1017.5
20260508033543 14 318 8.0 12.9 0.00 0.00 0.00 67 1017.5
20260508033058 13 306 8.0 12.9 0.00 0.00 0.00 68 1017.5
20260508032544 13 321 6.4 9.7 0.00 0.00 0.00 75 1017.4
20260508032043 12 316 8.0 9.7 0.00 0.00 0.00 80 1017.4
20260508031546 12 318 6.4 9.7 0.00 0.00 0.00 81 1017.3
20260508031041 11 318 6.4 9.7 0.00 0.00 0.00 90 1017.3
20260508030540 11 317 4.8 9.7 0.00 0.00 0.00 90 1017.3
20260508030048 11 317 6.4 8.0 0.00 0.00 0.00 90 1017.2
20260508025542 11 319 3.2 6.4 0.00 0.00 0.00 89 1017.3
20260508025041 11 318 3.2 6.4 0.00 0.00 0.00 88 1017.2
20260508024557 12 318 3.2 6.4 0.00 0.00 0.00 88 1017.2
20260508024043 12 310 3.2 6.4 0.00 0.00 0.00 87 1017.2
20260508023541 12 310 1.6 6.4 0.00 0.00 0.00 87 1017.2
20260508023050 12 310 3.2 8.0 0.00 0.00 0.00 87 1017.3
20260508022540 12 310 3.2 8.0 0.00 0.00 0.00 86 1017.2
20260508022041 12 311 4.8 8.0 0.00 0.00 0.00 85 1017.2
20260508021550 13 311 4.8 8.0 0.00 0.00 0.00 85 1017.2
20260508021040 13 312 4.8 8.0 0.00 0.00 0.00 84 1017.2
20260508020547 13 316 4.8 8.0 0.00 0.00 0.00 84 1017.2
20260508020050 13 319 4.8 8.0 0.00 0.00 0.00 84 1017.3
20260508015545 13 312 4.8 12.9 0.00 0.00 0.00 83 1017.3
20260508015044 13 306 4.8 12.9 0.00 0.00 0.00 83 1017.3
20260508014600 13 314 8.0 12.9 0.00 0.00 0.00 83 1017.3
20260508014047 13 312 9.7 12.9 0.00 0.00 0.00 82 1017.3
20260508013545 13 318 8.0 12.9 0.00 0.00 0.00 82 1017.2
20260508013056 13 317 6.4 12.9 0.00 0.00 0.00 81 1017.3
20260508012550 14 319 6.4 14.5 0.00 0.00 0.00 82 1017.3
20260508012045 14 306 8.0 14.5 0.00 0.00 0.00 81 1017.4
20260508011608 14 310 8.0 12.9 0.00 0.00 0.00 81 1017.4
20260508011044 15 309 6.4 14.5 0.00 0.00 0.00 80 1017.4
20260508010544 15 310 8.0 16.1 0.00 0.00 0.00 80 1017.4
20260508010050 15 316 11.3 16.1 0.00 0.00 0.00 80 1017.5
20260508005546 15 309 9.7 16.1 0.00 0.00 0.00 79 1017.5
20260508005044 15 314 9.7 16.1 0.00 0.00 0.00 78 1017.4
20260508004556 15 313 11.3 16.1 0.00 0.00 0.00 78 1017.7
20260508004043 16 300 9.7 16.1 0.00 0.00 0.00 78 1017.7
20260508003544 16 304 11.3 16.1 0.00 0.00 0.00 78 1017.7
20260508003051 16 309 11.3 16.1 0.00 0.00 0.00 78 1017.7
20260508002545 16 311 9.7 16.1 0.00 0.00 0.00 77 1017.7
20260508002045 16 301 9.7 16.1 0.00 0.00 0.00 76 1017.6
20260508001553 16 320 9.7 16.1 0.00 0.00 0.00 76 1017.6
20260508001044 17 300 9.7 16.1 0.00 0.00 0.00 74 1017.7
20260508000546 17 311 8.0 14.5 0.00 0.00 0.00 75 1017.6
20260508000052 17 294 6.4 16.1 0.00 0.00 0.00 74 1017.6
20260507235545 17 299 6.4 16.1 0.00 0.00 0.00 73 1017.6
20260507235045 18 284 6.4 16.1 0.00 0.00 0.00 71 1017.6
20260507234553 18 302 9.7 17.7 0.00 0.00 0.00 70 1017.6
20260507234045 19 309 8.0 17.7 0.00 0.00 0.00 69 1017.7
20260507233545 19 303 9.7 17.7 0.00 0.00 0.00 68 1017.7
20260507233056 20 288 8.0 16.1 0.00 0.00 0.00 67 1017.8
20260507232544 20 309 6.4 14.5 0.00 0.00 0.00 66 1017.7
20260507232045 20 300 6.4 12.9 0.00 0.00 0.00 65 1017.7
20260507231555 21 296 6.4 12.9 0.00 0.00 0.00 66 1017.7
20260507231046 21 296 6.4 12.9 0.00 0.00 0.00 64 1017.8
20260507230546 21 293 6.4 12.9 0.00 0.00 0.00 65 1017.8
20260507230051 21 297 6.4 12.9 0.00 0.00 0.00 63 1017.8
20260507225543 21 305 4.8 12.9 0.00 0.00 0.00 63 1017.8
20260507225045 21 302 4.8 11.3 0.00 0.00 0.00 63 1017.9
20260507224550 21 298 4.8 11.3 0.00 0.00 0.00 63 1017.8
20260507224101 21 304 3.2 12.9 0.00 0.00 0.00 59 1017.8
20260507223544 21 293 4.8 12.9 0.00 0.00 0.00 62 1017.8
20260507223058 21 302 4.8 11.3 0.00 0.00 0.00 65 1017.9
20260507222545 21 294 4.8 11.3 0.00 0.00 0.00 66 1017.8
20260507222047 21 296 4.8 8.0 0.00 0.00 0.00 65 1018.0
20260507221556 21 292 4.8 9.7 0.00 0.00 0.00 65 1018.0
20260507221044 21 296 4.8 11.3 0.00 0.00 0.00 65 1018.0
20260507220543 21 292 4.8 12.9 0.00 0.00 0.00 67 1018.1
20260507220059 21 291 6.4 14.5 0.00 0.00 0.00 68 1018.1
20260507215545 21 295 6.4 14.5 0.00 0.00 0.00 68 1018.0
20260507215045 21 295 6.4 12.9 0.00 0.00 0.00 67 1018.1
20260507214556 21 289 6.4 12.9 0.00 0.00 0.00 68 1018.2
20260507214045 21 319 6.4 11.3 0.00 0.00 0.00 67 1018.1
20260507213548 21 292 4.8 11.3 0.00 0.00 0.00 67 1018.2
20260507213056 21 301 4.8 11.3 0.00 0.00 0.00 68 1018.3
20260507212546 21 315 6.4 11.3 0.00 0.00 0.00 68 1018.4
20260507212044 21 309 4.8 12.9 0.00 0.00 0.00 69 1018.4